Location: Melque
(41.0517°N, 4.4694°W)
Time: 04:13:55
(UTC+00:00)

Cosmos 2227 Rocket - Pass Details

Date: 11 December 2025
Orbit: 838 x 843 km, 71.0° (Epoch: 13 January)

Event Time Altitude Azimuth Distance (km) Brightness Sun altitude
Rises 18:37:24 0° 332° (NNW) 3,400 5.5 -19.6°
Reaches altitude 10° 18:39:52 10° 328° (NNW) 2,462 4.8 -20.1°
Maximum altitude 18:45:23 57° 252° (WSW) 986 2.8 -21.1°
Drops below altitude 10° 18:50:53 10° 174° (S) 2,450 4.7 -22.1°
Sets 18:53:21 0° 171° (S) 3,381 5.4 -22.6°
